Etusivu
METAR-TAF:

METAR-TAF

Lentoasemat :

Appleton Municipal Airport

Appleton, Minnesota, Yhdysvallat

Leveyspiiri: 45-13-39N, Pituuspiiri: 096-00-15W, korkeus merenpinnasta: 310 m

Tämänhetkinen sää

Tämä raportti tehtiin 12 minuuttia sitten, kello 18.51 UTC
Tuuli 14 kn etelästä/kaakosta puuskistuen 27 kn:hen
Lämpötila -5°C
Kosteus 49%
Ilmanpaine 1022 hPa
Näkyvyys: 16.1 km
selkeää

METAR: KAQP 121851Z AUTO 16014G27KT 10SM CLR M05/M14 A3018 RMK AO2

Aika: 13:03 (19:03 UTC)


TAF: puuttuu

Säähavainnot ja -ennusteet yli 4000 lentoasemalta (METAR- ja TAF-raportit).

Käytössä olevat sääasemat on merkitty karttaan keltaisilla ja punaisilla pisteillä.

Aseta hiiri pisteen päälle nähdäksesi sääaseman nimen.

Klikkaa sitten nähdäksesi säähavainnot ja -ennusteet.

Kartan vaihtaminen: klikkaa mustalla rastilla varustettuja vihreitä pisteitä, niin voit zoomata sisään; viivalla varustettua vihreää pistettä, niin voit zoomata ulos tai vihreitä nuolia, niin pääset viereisille kartoille.


METAR-TAF: